Wind_Speed
34 31 32 30 29 27 25 25 24 23 21 18 18 16 14 13 11 10 8 8 7 6 9 5 7 8 3 10 7 7 7 5 3 5 6 2 3 2 2 3 4 4 3
34 33 33 32 31 30 28 28 27 25 25 20 19 16 15 12 11 10 9 9 9 8 6 7 6 8 4 5 7 7 8 4 5 7 6 5 5 4 2 2 2 3 1
36 36 35 35 33 32 31 31 31 29 27 21 20 17 16 13 13 13 10 10 10 9 9 7 9 9 9 6 8 7 6 4 6 8 3 3 5 7 1 2 2 1 2
34 36 35 37 36 35 32 31 32 32 29 29 22 22 19 18 15 14 11 12 12 10 8 8 7 8 6 6 6 6 8 5 6 3 3 2 3 3 1 2 3 3 2
36 38 39 38 37 35 34 32 33 34 30 33 26 25 22 18 15 14 15 13 13 12 10 9 9 7 8 8 7 8 10 8 5 6 6 3 2 3 5 5 5 1 2
34 36 37 36 36 36 34 34 36 36 36 34 34 29 26 22 18 17 15 14 12 12 13 11 11 9 7 7 7 6 11 9 9 5 7 7 6 6 3 1 3 3 0
34 35 38 40 39 39 39 37 38 39 40 36 36 35 31 29 21 19 18 16 15 14 16 15 12 8 7 7 9 9 9 9 8 11 8 5 4 1 2 1 2 1 1
34 36 39 40 42 41 42 42 41 41 41 41 40 40 38 27 26 24 19 19 16 15 14 14 14 12 11 9 9 7 6 8 9 10 13 7 7 6 6 5 3 5 5
34 35 37 39 41 42 45 47 44 45 45 41 42 43 41 37 28 27 26 20 20 16 17 14 13 15 13 12 12 9 9 8 9 10 11 11 7 7 8 7 7 6 7
34 33 35 37 39 41 42 43 44 45 44 43 44 44 43 41 36 31 28 25 21 23 14 18 17 16 17 16 16 12 13 12 11 9 12 11 9 9 10 9 8 8 9
25 28 33 36 38 37 38 41 43 43 42 43 44 43 41 39 41 36 36 31 27 22 25 20 18 18 18 18 19 17 13 14 14 14 12 12 13 10 9 10 10 10 10
27 30 30 33 36 38 38 40 41 41 43 43 45 46 43 39 38 44 38 33 33 29 27 24 22 19 19 19 20 19 17 17 15 15 15 15 13 16 15 14 14 13 14
32 29 30 30 34 37 38 39 40 41 39 40 43 43 43 44 42 40 43 39 36 33 28 27 26 23 21 23 22 21 20 20 20 19 18 18 17 19 16 17 15 15 17
31 33 30 29 31 35 40 40 40 39 38 37 40 44 46 46 43 42 41 42 40 37 34 31 29 27 24 24 24 23 23 22 22 21 20 20 21 22 21 20 21 20 20
19 31 28 30 31 32 37 41 38 40 40 42 42 47 49 47 44 44 43 44 41 40 37 34 32 30 26 24 26 26 25 24 24 23 22 22 23 23 24 20 20 20 19
8 11 19 22 25 29 33 37 43 41 42 43 48 44 43 45 47 46 47 44 43 42 40 38 36 34 29 27 28 27 26 27 26 26 25 24 24 25 26 29 28 27 27
10 9 10 15 22 28 28 33 41 42 40 44 42 43 43 46 48 47 46 47 45 43 43 40 39 38 37 32 31 30 31 26 28 28 26 24 21 23 25 25 25 27 29
13 13 13 14 17 21 25 29 31 41 43 44 42 44 43 45 46 46 48 47 45 44 44 43 42 41 40 37 35 34 33 32 32 28 27 28 27 27 23 24 24 27 28
14 15 15 16 18 19 23 23 31 35 43 43 47 46 48 44 45 48 49 48 46 46 45 44 43 43 42 38 36 35 35 34 35 34 34 34 34 33 31 32 34 35 35
14 17 19 20 21 24 24 27 31 36 42 47 50 48 46 45 46 47 47 49 48 47 43 44 44 43 42 40 39 36 35 31 33 34 36 37 38 38 37 37 37 39 39
14 18 19 23 23 23 25 31 34 39 46 41 40 42 45 45 43 41 41 43 47 37 44 38 41 43 41 41 39 38 38 33 29 29 29 29 30 30 30 33 35 39 38
15 10 15 17 19 22 27 33 37 41 37 36 39 40 41 40 37 39 39 38 37 39 35 37 33 32 39 38 39 38 38 37 36 33 26 25 27 29 30 31 31 30 29
15 12 9 6 6 10 17 27 33 32 34 36 38 37 37 38 35 37 37 33 34 31 33 29 30 29 27 28 33 36 37 36 37 37 27 30 30 29 30 32 31 28 27
22 20 14 12 12 2 8 14 22 26 29 33 34 35 36 37 37 32 30 29 29 29 27 29 27 26 26 27 25 28 32 33 35 36 37 37 36 35 28 26 28 28 28
24 25 22 22 19 13 9 10 15 24 27 30 32 34 33 35 37 30 28 29 26 27 27 26 24 24 25 26 27 25 26 28 35 35 34 34 34 32 26 25 26 26 24
24 24 27 21 19 16 17 10 14 17 25 28 31 31 31 32 31 31 33 31 31 30 28 26 26 19 24 24 26 29 30 24 19 20 24 22 22 22 20 20 21 25 26
Wind_Direction
185 186 188 188 189 188 188 187 186 191 186 186 178 179 183 190 176 172 180 183 191 191 153 190 173 160 199 164 139 132 143 144 137 119 136 179 169 131 168 106 115 66 115
185 187 190 191 192 192 191 190 190 196 190 190 184 185 183 186 188 191 193 184 186 212 169 185 177 163 199 163 175 211 178 157 191 193 233 198 154 170 151 127 157 145 89
186 189 192 193 195 196 195 194 193 197 196 189 189 190 192 193 197 194 202 196 194 190 177 200 160 183 172 191 198 192 214 184 202 257 312 23 357 125 144 161 174 67 207
192 192 194 196 198 199 199 200 198 199 203 184 196 195 188 193 197 200 200 198 195 194 190 209 185 177 222 214 188 212 230 235 198 218 239 283 0 34 212 169 211 235 226
192 193 197 198 199 199 200 200 204 203 200 204 190 203 195 200 199 199 194 189 202 196 200 222 199 202 190 206 201 209 196 218 233 200 177 175 182 291 314 232 142 164 206
194 197 199 199 200 201 202 202 205 208 204 212 200 201 207 198 204 201 197 198 202 202 202 208 227 209 189 209 197 205 196 184 215 202 186 185 191 200 208 210 137 88 163
195 196 195 198 200 200 202 202 204 210 211 209 212 203 203 198 206 207 204 203 206 210 221 210 218 221 210 213 208 205 206 212 207 198 197 223 231 303 274 320 7 254 246
194 197 199 199 200 201 201 202 204 209 212 210 215 214 214 210 204 211 207 208 211 213 219 233 213 210 224 210 238 214 200 227 215 215 198 215 227 236 235 253 306 287 252
193 196 199 201 201 202 203 202 203 209 214 209 214 219 218 213 212 210 215 208 214 215 212 222 218 216 216 223 223 212 232 221 223 238 229 224 231 244 239 242 245 255 286
189 195 199 202 204 205 206 205 206 208 211 207 213 217 220 221 209 212 212 211 211 214 214 221 220 220 219 220 224 220 220 223 220 224 244 233 230 248 247 243 247 249 254
186 197 201 204 206 206 205 207 208 208 210 210 210 212 216 217 219 210 215 207 209 216 224 214 223 222 222 222 223 213 220 231 220 215 226 243 228 232 245 255 250 250 256
208 200 205 203 203 205 206 207 207 208 211 209 209 214 213 212 215 215 213 219 220 220 223 231 225 227 221 221 223 223 218 220 227 231 233 235 239 255 234 231 246 249 253
212 205 209 199 202 204 207 208 208 210 210 209 210 210 211 215 210 218 220 223 228 229 226 230 232 232 221 219 225 228 224 223 229 228 234 239 240 241 239 249 253 264 282
222 209 201 198 202 204 204 207 210 210 209 211 210 212 212 212 215 211 223 223 228 230 227 228 233 235 230 225 224 228 230 227 231 231 234 237 240 247 251 249 251 256 259
227 219 213 196 199 202 204 204 211 209 209 209 210 213 214 212 211 215 218 227 228 230 229 228 232 235 229 227 227 223 229 231 230 233 240 241 239 241 250 248 258 261 264
243 246 217 215 209 205 204 207 206 210 209 209 211 211 212 211 212 213 217 223 227 228 229 229 232 234 229 231 232 237 230 230 236 238 235 237 242 254 254 256 258 253 255
256 238 240 229 221 212 212 212 210 209 211 212 213 210 212 213 213 214 214 221 226 227 230 231 235 237 240 230 233 237 238 233 239 242 243 242 247 258 266 272 270 267 263
260 257 250 242 232 226 219 217 213 210 211 213 213 212 211 214 215 212 217 222 225 225 229 232 236 239 241 242 238 238 242 243 239 242 252 257 249 240 246 260 265 273 277
273 270 263 254 246 236 226 219 211 211 211 212 212 213 210 211 212 215 218 221 224 226 228 234 236 238 240 241 242 241 242 243 249 252 251 249 256 264 260 255 256 259 261
287 287 280 268 253 243 229 223 217 212 211 211 214 211 210 210 213 217 216 221 226 229 229 232 236 237 240 241 242 243 242 239 246 254 256 256 258 260 263 266 268 270 274
313 298 287 270 258 246 230 223 220 216 218 212 212 210 210 210 213 212 214 218 223 218 229 224 231 236 239 241 242 242 242 237 242 245 248 259 266 267 266 266 268 272 278
334 305 309 272 263 249 228 224 220 217 212 209 207 207 208 209 212 211 214 215 217 218 219 226 225 230 240 242 243 244 242 243 240 236 246 254 258 263 268 271 272 274 276
11 9 358 309 276 244 228 223 223 213 204 201 201 203 204 204 204 212 213 213 215 214 218 223 225 228 233 239 244 245 246 245 244 243 240 241 245 251 257 261 267 271 267
31 45 68 68 40 118 170 198 198 193 193 195 198 198 200 202 197 207 206 205 207 210 213 215 222 227 231 233 238 247 245 242 241 242 243 241 241 245 247 253 262 265 266
23 36 52 64 75 93 131 151 175 196 198 198 197 196 199 200 194 194 199 203 206 212 212 216 221 224 229 233 232 232 247 248 241 242 243 243 243 245 247 251 250 261 264
27 22 39 56 62 85 98 121 175 189 197 197 193 194 193 195 192 189 196 196 204 209 210 211 218 216 232 237 232 233 229 234 246 237 229 233 236 240 246 249 251 250 257
Height
1524 1531 1538 1544 1549 1555 1559 1563 1567 1570 1574 1578 1582 1585 1587 1589 1590 1594 1595 1596 1598 1598 1599 1599 1601 1602 1602 1602 1605 1606 1606 1608 1608 1609 1611 1611 1611 1611 1612 1612 1613 1612 1613
1520 1527 1534 1540 1545 1551 1555 1559 1564 1567 1571 1576 1580 1584 1586 1589 1591 1594 1594 1597 1598 1598 1600 1600 1602 1603 1605 1606 1606 1606 1607 1609 1610 1608 1609 1610 1611 1610 1611 1612 1612 1613 1613
1513 1522 1529 1534 1541 1546 1551 1555 1559 1563 1567 1573 1578 1582 1585 1587 1590 1592 1594 1596 1598 1599 1600 1600 1601 1603 1604 1605 1605 1606 1606 1608 1610 1609 1610 1607 1610 1609 1611 1612 1612 1612 1613
1509 1517 1524 1529 1534 1541 1548 1552 1555 1559 1563 1569 1575 1579 1582 1585 1587 1589 1592 1594 1597 1598 1600 1599 1601 1602 1603 1604 1605 1606 1606 1607 1609 1610 1611 1610 1611 1611 1611 1611 1612 1612 1612
1500 1507 1515 1521 1529 1536 1542 1547 1550 1555 1560 1564 1571 1575 1579 1583 1585 1587 1589 1593 1594 1597 1599 1599 1600 1601 1602 1603 1604 1605 1606 1608 1608 1610 1611 1612 1612 1612 1611 1609 1610 1610 1612
1493 1501 1509 1518 1524 1531 1537 1542 1545 1549 1554 1559 1565 1570 1575 1579 1583 1585 1587 1591 1593 1595 1597 1599 1599 1600 1602 1602 1603 1605 1605 1606 1608 1608 1610 1611 1611 1611 1610 1610 1610 1611 1611
1486 1494 1502 1508 1515 1522 1529 1535 1539 1543 1547 1553 1558 1564 1570 1575 1579 1582 1586 1588 1590 1592 1593 1596 1598 1600 1600 1601 1602 1602 1604 1606 1607 1608 1610 1610 1610 1610 1611 1610 1610 1610 1611
1475 1485 1492 1500 1507 1514 1520 1526 1531 1535 1542 1547 1552 1558 1564 1571 1575 1580 1583 1585 1587 1590 1590 1592 1596 1597 1599 1600 1600 1602 1603 1605 1605 1607 1608 1610 1611 1611 1612 1611 1611 1610 1608
1463 1475 1485 1493 1500 1506 1511 1516 1523 1527 1533 1540 1545 1550 1557 1564 1570 1575 1578 1582 1585 1587 1589 1590 1592 1595 1597 1598 1599 1601 1602 1603 1604 1605 1606 1608 1610 1610 1611 1611 1611 1611 1609
1453 1464 1476 1485 1492 1498 1505 1513 1517 1520 1526 1534 1538 1544 1549 1556 1563 1568 1572 1576 1581 1583 1586 1586 1589 1591 1593 1595 1596 1599 1600 1601 1603 1604 1605 1606 1608 1609 1609 1609 1609 1609 1609
1446 1458 1468 1476 1485 1493 1500 1504 1511 1517 1521 1526 1532 1537 1542 1548 1555 1561 1565 1570 1574 1578 1580 1583 1584 1586 1589 1591 1592 1595 1598 1597 1600 1601 1604 1604 1604 1605 1607 1607 1607 1607 1606
1444 1453 1460 1468 1477 1485 1492 1496 1502 1508 1511 1518 1524 1529 1535 1541 1546 1552 1558 1563 1567 1571 1575 1577 1580 1582 1584 1587 1588 1591 1594 1595 1597 1598 1600 1601 1602 1601 1602 1602 1604 1604 1603
1440 1446 1453 1460 1468 1476 1484 1489 1495 1500 1507 1513 1518 1524 1528 1532 1538 1544 1550 1556 1560 1564 1568 1571 1574 1576 1579 1582 1584 1586 1589 1591 1592 1594 1595 1597 1598 1598 1599 1600 1600 1601 1600
1434 1439 1446 1454 1462 1468 1475 1482 1488 1494 1501 1506 1512 1515 1519 1524 1530 1537 1542 1547 1552 1556 1561 1565 1567 1571 1574 1576 1579 1582 1583 1586 1588 1589 1590 1592 1593 1593 1594 1595 1595 1595 1596
1432 1435 1438 1444 1455 1462 1467 1474 1483 1488 1493 1497 1502 1504 1510 1517 1523 1529 1534 1539 1544 1548 1554 1559 1561 1564 1568 1571 1572 1575 1578 1580 1582 1584 1584 1585 1587 1589 1590 1591 1592 1592 1591
1437 1438 1440 1445 1451 1456 1462 1467 1473 1479 1485 1489 1491 1499 1505 1510 1514 1520 1525 1531 1536 1541 1547 1551 1555 1558 1561 1565 1567 1569 1572 1574 1576 1577 1578 1580 1582 1582 1584 1584 1585 1587 1586
1442 1445 1446 1446 1447 1451 1457 1461 1465 1474 1479 1483 1489 1494 1497 1501 1506 1512 1518 1522 1528 1534 1539 1544 1547 1550 1553 1558 1561 1563 1566 1569 1570 1571 1572 1574 1577 1577 1577 1578 1578 1579 1579
1447 1448 1447 1446 1447 1448 1450 1456 1461 1464 1470 1475 1481 1486 1491 1493 1499 1505 1509 1514 1520 1526 1531 1535 1539 1542 1545 1550 1554 1557 1560 1562 1564 1566 1567 1567 1569 1572 1574 1574 1574 1572 1572
1447 1445 1444 1443 1444 1445 1446 1449 1453 1456 1461 1465 1470 1475 1481 1487 1492 1496 1501 1508 1514 1518 1522 1527 1530 1533 1537 1541 1546 1550 1553 1555 1556 1558 1560 1561 1562 1563 1566 1568 1567 1567 1567
1441 1438 1436 1436 1437 1437 1440 1443 1445 1448 1449 1454 1457 1467 1474 1480 1482 1488 1494 1500 1505 1510 1515 1518 1521 1525 1529 1534 1538 1542 1545 1547 1549 1551 1551 1552 1554 1556 1558 1559 1559 1558 1559
1434 1431 1430 1428 1426 1428 1431 1432 1436 1438 1437 1447 1456 1461 1466 1472 1478 1484 1488 1494 1498 1504 1506 1511 1515 1518 1521 1525 1529 1533 1536 1539 1543 1544 1546 1546 1546 1548 1550 1552 1551 1551 1553
1427 1425 1422 1421 1419 1419 1421 1423 1426 1429 1437 1442 1448 1453 1459 1466 1473 1478 1482 1487 1493 1497 1502 1505 1509 1512 1514 1516 1519 1523 1526 1531 1533 1536 1540 1542 1543 1543 1544 1544 1545 1546 1546
1426 1422 1419 1417 1415 1413 1414 1416 1418 1426 1429 1435 1440 1446 1453 1460 1467 1470 1475 1481 1486 1492 1495 1500 1504 1507 1510 1510 1512 1514 1518 1522 1524 1528 1533 1533 1536 1537 1537 1537 1538 1539 1538
1428 1422 1417 1413 1411 1408 1408 1412 1416 1421 1425 1431 1435 1441 1446 1453 1460 1464 1470 1476 1479 1484 1489 1493 1497 1500 1503 1505 1507 1506 1509 1512 1515 1518 1522 1525 1527 1528 1529 1530 1530 1530 1531
1431 1424 1418 1413 1410 1408 1407 1408 1412 1419 1422 1426 1431 1435 1440 1447 1452 1458 1464 1468 1474 1478 1482 1487 1491 1494 1496 1498 1501 1503 1500 1502 1505 1510 1512 1515 1517 1519 1522 1523 1523 1524 1525
1432 1426 1421 1415 1412 1410 1409 1410 1412 1415 1420 1423 1426 1431 1435 1441 1446 1452 1456 1461 1465 1470 1475 1479 1484 1487 1490 1494 1497 1496 1496 1497 1500 1503 1506 1508 1512 1514 1516 1517 1517 1517 1518